Regional Weather Roundup
Issued by NWS

Home | Current Version | Previous Version | Graphics & Text | Print | Product List | Glossary On
Versions: 1 2 3 4 5 6 7 8 9 10 11 12 13 14 15 16 17 18 19 20 21 22 23 24 25 26 27 28 29 30 31 32 33 34 35 36 37 38 39 40 41 42 43 44 45 46 47 48 49 50
000
ASUS43 KOAX 201402
RWRNE

WEATHER ROUNDUP FOR NEBRASKA
NATIONAL WEATHER SERVICE OMAHA NE
800 AM CST MON FEB 20 2017

NOTES: SATELLITE DATA IS BEING USED TO AUGMENT CLOUD COVER ABOVE
       12000 FEET.
       "FAIR" INDICATES FEW OR NO CLOUDS BELOW 12,000 FEET WITH NO
       SIGNIFICANT WEATHER AND/OR OBSTRUCTIONS TO VISIBILITY.

  * THESE STATIONS DO NOT REPORT WEATHER SUCH AS RAIN...SNOW OR FOG.

NEZ001>004-019>022-054>056-201500-
NEBRASKA PANHANDLE

CITY           SKY/WX    TMP DP  RH WIND       PRES   REMARKS
SCOTTSBLUFF    CLEAR     31  20  63 W7        29.87R WCI  24
ALLIANCE       CLOUDY    40  25  55 NW16      29.82R WCI  31
CHADRON        CLOUDY    41  33  73 W13       29.84R
KIMBALL        CLEAR     38  23  53 NW20G26   29.88R WCI  28
SIDNEY         CLEAR     37  20  50 NW16      29.87R WCI  28
$$

NEZ057>060-069>072-079>082-201500-
SOUTHWEST NEBRASKA

CITY           SKY/WX    TMP DP  RH WIND       PRES   REMARKS
NORTH PLATTE   PTCLDY    40  30  67 NW8       29.74R WCI  34
IMPERIAL       CLEAR     43  21  41 W16       29.80R
LEXINGTON      CLOUDY    47  40  75 NW9       29.73R
MCCOOK         CLOUDY    47  34  60 W7        29.78R
OGALLALA       CLEAR     43  25  50 W17G24    29.80R
$$

NEZ005>010-023>029-035>040-094-201500-
NORTH CENTRAL NEBRASKA

CITY           SKY/WX    TMP DP  RH WIND       PRES   REMARKS
VALENTINE      CLOUDY    46  38  73 NW17G24   29.69R
AINSWORTH      PTCLDY    46  40  80 W10       29.69R
BROKEN BOW     CLOUDY    46  44  93 W3        29.69S
O`NEILL        CLOUDY    53  52  97 SW10      29.66S FOG
ORD            CLOUDY    52  49  89 SW10      29.67S FOG
THEDFORD       CLOUDY    48  38  67 NW12G17   29.71R
$$

NEZ041-046>049-061>064-073>077-083>087-201500-
SOUTH CENTRAL NEBRASKA

CITY           SKY/WX    TMP DP  RH WIND       PRES   REMARKS
GRAND ISLAND   CLOUDY    54  54 100 S9        29.71R FOG
AURORA         CLOUDY    55  55  99 S9        29.71S FOG
HASTINGS       CLOUDY    54  53  97 S6        29.72S FOG
HEBRON         CLOUDY    56  55  96 S10       29.72F FOG
HOLDREGE       CLOUDY    48  47  93 SW5       29.73R FOG
KEARNEY *      PTCLDY    52  46  82 S7        29.71F
YORK           CLOUDY    55  55 100 SE9       29.71F FOG
$$

NEZ011>018-030>034-042>045-201500-
NORTHEAST NEBRASKA

CITY           SKY/WX    TMP DP  RH WIND       PRES   REMARKS
NORFOLK        CLOUDY    56  54  93 S15       29.69R FOG
ALBION         CLOUDY    54  51  92 S5        29.70R FOG
BLAIR          CLOUDY    58  56  95 S14       29.76R FOG
FREMONT        CLOUDY    57  57  98 SE10      29.74R FOG
TEKAMAH        CLOUDY    56  54  93 SE14      29.74R FOG
WAYNE          CLOUDY    54  53  98 S6        29.70S FOG
$$

NEZ050>053-065>068-078-088>093-201500-
SOUTHEAST NEBRASKA

CITY           SKY/WX    TMP DP  RH WIND       PRES   REMARKS
LINCOLN        CLOUDY    59  57  93 S12       29.75R
OMAHA EPPLEY   CLOUDY    58  54  86 S15       29.76R FOG
BEATRICE       DRIZZLE   58  57  96 S9        29.77R
FALLS CITY     LGT RAIN  59  56  89 S9        29.79R
NEBRASKA CITY  RAIN      56  56  99 S5        29.79R VSB 1
PLATTSMOUTH    DRIZZLE   57  55  91 SE7       29.77R
$$

NEZ044-045-051>053-067-201500-
OMAHA AREA

CITY           SKY/WX    TMP DP  RH WIND       PRES   REMARKS
OMAHA EPPLEY   CLOUDY    58  54  86 S15       29.76R FOG
BLAIR          CLOUDY    58  56  95 S14       29.76R FOG
FREMONT        CLOUDY    57  57  98 SE10      29.74R FOG
MILLARD        CLOUDY    59  58  94 SE6       29.77R FOG
OFFUTT AFB     CLOUDY    99 N/A N/A S10       29.77R
PLATTSMOUTH    DRIZZLE   57  55  91 SE7       29.77R
WAHOO          CLOUDY    56  55  95 SE10      29.75R FOG
$$



USA.gov is the U.S. government's official web portal to all federal, state and local government web resources and services.